Location: Narrabri
(30.3170°S, 149.7830°E)
Time: 11:17:01
(UTC+11:00)

Tiangong 1 - Pass Details

Date: 07 October 2017
Orbit: 292 x 319 km, 42.8° (Epoch: 23 October)

Event Time Altitude Azimuth Distance (km) Brightness Sun altitude
Exits shadow 05:46:26 13° 322° (NW) 1,033 2.8 -10.6°
Maximum altitude 05:48:38 49° 36° (NE) 405 1.3 -10.1°
Drops below altitude 10° 05:51:15 10° 113° (ESE) 1,202 5.1 -9.6°
Sets 05:53:17 0° 118° (ESE) 2,043 6.5 -9.1°
